Location: Fargo
(46.8667°N, 96.7833°W)
Time: 22:45:51
(UTC-05:00)

ISS - Visible Passes

Search period start: 24 May 2019 00:00
Search period end: 03 June 2019 00:00
Orbit: 408 x 418 km, 51.6° (Epoch: 25 May)

Date Brightness Start Highest point End Pass type
(mag) Time Alt. Az. Time Alt. Az. Time Alt. Az.
24 May -2.5 00:14:50 10° WNW 00:18:03 40° NNE 00:19:34 24° ENE visible
24 May -1.4 01:51:31 10° WNW 01:52:22 17° WNW 01:52:22 17° WNW visible
24 May -2.5 21:48:05 10° W 21:51:19 44° NNW 21:54:33 10° ENE visible
24 May -2.2 23:25:18 10° WNW 23:28:26 36° N 23:31:32 10° ENE visible
25 May -2.7 01:02:01 10° WNW 01:04:19 41° WNW 01:04:19 41° WNW visible
25 May -2.1 22:35:42 10° WNW 22:38:48 34° N 22:41:55 10° ENE visible
26 May -3.4 00:12:32 10° WNW 00:15:52 61° NNE 00:16:20 53° ENE visible
26 May -2.1 21:46:03 10° WNW 21:49:10 35° N 21:52:18 10° ENE visible
26 May -2.8 23:23:01 10° WNW 23:26:17 46° NNE 23:28:22 19° E visible
27 May -1.8 00:59:45 10° WNW 01:01:10 22° W 01:01:10 22° W visible
27 May -2.5 22:33:29 10° WNW 22:36:40 39° N 22:39:51 10° E visible
28 May -3.7 00:10:10 10° WNW 00:13:13 66° WSW 00:13:13 66° WSW visible
28 May -2.2 21:43:54 10° WNW 21:47:01 35° N 21:50:08 10° ENE visible
28 May -3.7 23:20:38 10° WNW 23:24:00 77° NNE 23:25:18 34° ESE visible
29 May -1.1 00:57:48 10° W 00:58:06 12° W 00:58:06 12° W visible
29 May -3.2 22:31:06 10° WNW 22:34:25 56° NNE 22:37:24 12° E visible
30 May -2.4 00:07:56 10° WNW 00:10:12 28° WSW 00:10:12 28° WSW visible
30 May -3.5 23:18:15 10° WNW 23:21:31 52° SSW 23:22:20 40° SSE visible
31 May -3.8 22:28:39 10° WNW 22:32:00 81° SSW 22:34:28 17° ESE visible
01 Jun -1.4 00:06:16 10° W 00:07:17 13° WSW 00:07:17 13° WSW visible
01 Jun -2.3 23:16:06 10° W 23:18:51 23° SW 23:19:28 22° SSW visible
02 Jun -2.9 22:26:16 10° WNW 22:29:23 37° SW 22:31:40 16° SSE visible
